[[{"header":{"parameterUnit":"m.s-1","parameterCategory":1,"la1":30.2991,"la2":30.254,"lo1":-89.0895,"lo2":-89.0444,"dy":0.0017,"dx":0.0017,"nx":28,"ny":28,"refTime":"2024-03-18T09:00:00:Z","depth":0,"parameterNumber":2,"parameterNumberName":"U-component_of_WINDS"},"data":[0,0,0,0,0,0,0,0,0,0,0,0,0,0,0,0,0,0,0,0,0,0,0,0,0,0,0,0,0,0,0,0,0,0,0,0,0,0,0,0,0,0,0,0,0,0,0,0,0,0,0,0,0,0,0,0,0,0,2.5842,2.5844,0,2.5982,2.5983,2.5985,2.5978,2.5976,2.5974,2.5972,2.6113,2.6119,2.6124,0,0,0,0,0,0,0,0,0,0,0,0,0,2.5568,2.5573,2.5842,2.5844,2.5846,2.5981,2.5983,2.5985,2.5978,2.5976,2.5973,2.5971,2.6112,2.6118,2.6125,0,0,0,0,0,0,0,0,0,0,0,0,0,2.5695,2.5574,2.5842,2.5859,2.5861,2.5981,2.5983,2.5986,2.5979,2.5976,2.5973,2.597,2.6109,2.6118,2.6126,2.6237,0,0,2.6152,2.6155,0,0,0,0,0,0,0,0,2.5688,2.5705,2.5854,2.5858,2.5861,2.5959,2.5938,2.607,2.5979,2.5934,2.5972,2.5968,2.6064,2.6076,2.6109,2.6244,2.625,2.6152,2.6157,2.6161,2.6163,0,0,0,0,0,0,0,2.5679,2.5699,2.5897,2.5857,2.5861,2.5858,2.5873,2.5963,2.6014,2.5938,2.5938,2.5954,2.6066,2.6101,2.6112,2.6252,2.6152,2.616,2.6165,2.6168,2.6482,2.6485,0,0,0,0,0,0,2.5667,2.5692,2.5893,2.5901,2.5765,2.5866,2.5882,2.5931,2.6013,2.6023,2.5957,2.5953,2.6088,2.6102,2.6117,2.6251,2.6161,2.6169,2.6174,2.6479,2.6483,2.6487,0,0,0,0,0,0,2.5661,2.5685,2.5887,2.5797,2.5822,2.5873,2.5928,2.5935,2.597,2.6028,2.6036,2.5983,2.6086,2.6105,2.6207,2.6256,2.6173,2.618,2.6475,2.648,2.6485,2.6521,0,0,0,0,0,0,2.5653,2.5683,2.5726,2.5798,2.5827,2.5976,2.5931,2.594,2.5985,2.5982,2.6055,2.6064,2.6085,2.6194,2.6215,2.6266,2.6187,2.6471,2.6477,2.6483,2.6515,2.6526,2.6535,0,0,0,0,0,2.5643,2.5731,2.5729,2.5753,2.5883,2.5979,2.5995,2.6018,2.5989,2.6033,2.6069,2.6062,2.6247,2.6205,2.6228,2.6282,2.6468,2.6476,2.6483,2.6511,2.6524,2.6535,0,0,0,0,0,0,2.5665,2.5741,2.5739,2.5853,2.5909,2.5977,2.6033,2.6032,2.6098,2.6092,2.6117,2.6134,2.6235,2.6269,2.622,2.6393,2.6354,2.6366,2.6367,2.638,2.639,2.6379,2.6194,0,0,0,0,0,2.5683,2.5755,2.5817,2.5912,2.594,2.5982,2.6024,2.6037,2.6096,2.612,2.6164,2.6221,2.6292,2.6338,2.6407,2.652,2.6535,2.6569,2.6579,2.6587,2.6597,2.6657,2.6672,2.6511,2.6511,2.6511,0,0,2.5721,2.5772,2.5816,2.5917,2.5963,2.6035,2.6002,2.6081,2.6134,2.6132,2.623,2.6264,2.6329,2.6436,2.6486,2.6468,2.6644,2.6596,2.6602,2.6608,2.6666,2.6681,2.6694,2.6516,2.6515,2.6514,0,0,2.5827,2.5874,2.5956,2.6001,2.607,2.6096,2.6116,2.6184,2.6206,2.6305,2.6304,2.6367,2.649,2.6536,2.6575,2.6695,2.669,2.6717,2.6769,2.6827,2.684,2.6851,2.6892,2.6907,2.6727,2.6727,2.6727,0,2.5866,2.5976,2.5999,2.6077,2.6121,2.6122,2.6204,2.6247,2.6334,2.6364,2.6343,2.6494,2.6538,2.6655,2.6684,2.6717,2.6738,2.6709,2.6836,2.6848,2.6859,2.6898,2.6913,2.673,2.673,2.6729,2.6729,0,2.6018,2.6094,2.6153,2.6236,2.6287,2.6367,2.6401,2.6449,2.6456,2.6485,2.6584,2.6637,2.6715,2.6744,2.6753,2.6861,2.6847,2.6831,2.6792,2.6876,2.6913,2.6929,2.6734,2.6733,2.6732,2.6731,0,0,2.6143,2.6236,2.6257,2.6294,2.6368,2.6427,2.6506,2.6582,2.6622,2.6682,2.6747,2.685,2.6834,2.6879,2.6893,2.6944,2.7032,2.6921,2.6923,2.6938,2.7152,2.7162,2.7179,2.703,2.7033,2.7035,2.7146,0,2.6255,2.6396,2.6417,2.6541,2.661,2.661,2.6679,2.6731,2.6759,2.6821,2.6852,2.6923,2.6899,2.6926,2.6976,2.7011,2.7075,2.7004,2.709,2.7092,2.7071,2.7199,2.7211,2.7313,2.7161,2.7163,2.7165,0,2.6405,2.6467,2.6597,2.666,2.6689,2.6751,2.6821,2.6881,2.6939,2.6956,2.7004,2.7011,2.7092,2.705,2.716,2.711,2.7147,2.7169,2.7173,2.7181,2.7133,2.7208,2.7346,2.736,2.7188,2.7187,2.7185,0,2.6479,2.6596,2.6688,2.672,2.6796,2.6838,2.6872,2.6927,2.6971,2.7032,2.706,2.713,2.7167,2.722,2.7245,2.7213,2.7353,2.7314,2.7367,2.7366,2.7396,2.7393,2.7539,2.7422,2.7422,2.7422,2.7421,0,2.6601,2.668,2.6722,2.6779,2.6867,2.689,2.6976,2.7008,2.7057,2.7119,2.7124,2.7181,2.7211,2.7273,2.7293,2.7379,2.7397,2.7412,2.7416,2.741,2.7408,2.7433,2.7426,2.7426,2.7425,2.7424,2.7423,0,2.6699,2.6731,2.6831,2.6894,2.6911,2.6973,2.7026,2.708,2.7107,2.7185,2.7205,2.7247,2.732,2.735,2.744,2.7453,2.7551,2.7551,2.7531,2.7532,2.7583,2.7577,2.7749,2.7771,2.7642,2.7643,2.7644,0,2.6774,2.6835,2.6903,2.6945,2.6979,2.7046,2.709,2.7115,2.716,2.723,2.7275,2.7347,2.7406,2.7522,2.756,2.7628,2.7628,2.7683,2.7638,2.763,2.7626,2.7621,2.7626,2.7691,2.7692,2.7694,2.7694,0,2.6903,2.6915,2.6978,2.7046,2.7097,2.7152,2.7206,2.7239,2.7272,2.7322,2.7396,2.7442,2.7532,2.7603,2.7673,2.7706,2.7705,2.7708,2.7724,2.7718,2.7703,2.7709,2.7552,2.7704,2.7703,2.7702,2.7702,2.7702,2.699,2.7042,2.7098,2.7167,2.721,2.7259,2.7312,2.7345,2.7407,2.7482,2.7493,2.7571,2.7626,2.7719,2.7755,2.7815,2.7801,2.7824,2.783,2.7835,2.7837,2.7695,2.7829,2.7828,2.7828,2.7828,2.7828,0,2.7117,2.7152,2.7215,2.7289,2.7343,2.7338,2.7396,2.7441,2.7509,2.756,2.7618,2.7701,2.777,2.7813,2.7881,2.7921,2.7922,2.7938,2.7934,2.7941,2.7847,2.7825,2.7936,2.7936,2.7936,2.7936,2.7936,2.7936,2.7189,2.7276,2.7295,2.7402,2.7437,2.7514,2.7547,2.7591,2.7632,2.7725,2.7781,2.7809,2.7856,2.7927,2.7989,2.8,2.8024,2.804,2.805,2.796,2.7949,2.7938,2.7918,2.8046,2.8046,2.8139,2.814,2.814]},{"header":{"parameterUnit":"m.s-1","parameterCategory":1,"la1":30.2991,"la2":30.254,"lo1":-89.0895,"lo2":-89.0444,"dy":0.0017,"dx":0.0017,"nx":28,"ny":28,"refTime":"2024-03-18T09:00:00:Z","depth":0,"parameterNumber":3,"parameterNumberName":"V-component_of_WINDS"},"data":[0,0,0,0,0,0,0,0,0,0,0,0,0,0,0,0,0,0,0,0,0,0,0,0,0,0,0,0,0,0,0,0,0,0,0,0,0,0,0,0,0,0,0,0,0,0,0,0,0,0,0,0,0,0,0,0,0,0,-0.8951,-0.8952,0,-0.903,-0.9031,-0.9032,-0.9081,-0.9081,-0.9081,-0.9082,-0.9161,-0.9163,-0.9165,0,0,0,0,0,0,0,0,0,0,0,0,0,-0.8842,-0.8844,-0.8951,-0.8952,-0.8953,-0.903,-0.9031,-0.9032,-0.9081,-0.9081,-0.9082,-0.9082,-0.916,-0.9163,-0.9165,0,0,0,0,0,0,0,0,0,0,0,0,0,-0.8902,-0.8845,-0.8951,-0.8987,-0.8991,-0.903,-0.9031,-0.9033,-0.9081,-0.9081,-0.9082,-0.9082,-0.916,-0.9162,-0.9165,-0.9174,0,0,-0.9174,-0.9175,0,0,0,0,0,0,0,0,-0.8899,-0.8906,-0.8981,-0.8984,-0.8989,-0.9046,-0.9022,-0.908,-0.9081,-0.9047,-0.9082,-0.9082,-0.9122,-0.9128,-0.9142,-0.9178,-0.9181,-0.9174,-0.9176,-0.9177,-0.9178,0,0,0,0,0,0,0,-0.8894,-0.8903,-0.8982,-0.8982,-0.8987,-0.8999,-0.9008,-0.9033,-0.9081,-0.905,-0.9053,-0.9062,-0.9125,-0.9139,-0.9144,-0.9183,-0.9174,-0.9176,-0.9178,-0.9179,-0.9232,-0.9231,0,0,0,0,0,0,-0.8885,-0.8899,-0.898,-0.8985,-0.8944,-0.9,-0.901,-0.9027,-0.9081,-0.909,-0.9062,-0.9064,-0.9134,-0.9141,-0.9147,-0.9162,-0.9177,-0.9179,-0.9181,-0.9232,-0.9232,-0.9231,0,0,0,0,0,0,-0.8882,-0.8892,-0.8977,-0.8943,-0.8955,-0.9002,-0.902,-0.9029,-0.9043,-0.909,-0.9099,-0.9068,-0.9135,-0.9143,-0.9168,-0.9166,-0.9181,-0.9183,-0.9232,-0.9232,-0.9231,-0.9192,0,0,0,0,0,0,-0.8879,-0.889,-0.8894,-0.8943,-0.8956,-0.8996,-0.902,-0.903,-0.9048,-0.9052,-0.9098,-0.9106,-0.9136,-0.9163,-0.917,-0.917,-0.9185,-0.9233,-0.9232,-0.9232,-0.9194,-0.919,-0.9187,0,0,0,0,0,-0.8875,-0.8879,-0.8894,-0.8904,-0.8962,-0.8995,-0.9003,-0.9038,-0.9048,-0.9052,-0.9083,-0.9105,-0.9165,-0.9165,-0.9174,-0.9174,-0.9233,-0.9232,-0.9232,-0.9195,-0.9191,-0.9187,0,0,0,0,0,0,-0.8828,-0.8886,-0.8903,-0.8924,-0.8954,-0.9004,-0.901,-0.9032,-0.906,-0.9062,-0.9104,-0.9114,-0.9134,-0.9157,-0.9156,-0.9187,-0.9202,-0.9203,-0.9171,-0.9167,-0.9164,-0.9158,-0.9188,0,0,0,0,0,-0.882,-0.8843,-0.8892,-0.8905,-0.892,-0.8962,-0.8978,-0.9002,-0.9035,-0.9048,-0.908,-0.9111,-0.9138,-0.9154,-0.918,-0.9198,-0.9209,-0.9202,-0.9199,-0.9196,-0.9196,-0.9208,-0.9206,-0.9229,-0.9229,-0.9229,0,0,-0.8804,-0.8839,-0.885,-0.8897,-0.8923,-0.8946,-0.8973,-0.8995,-0.9012,-0.9052,-0.9077,-0.9101,-0.9139,-0.916,-0.9171,-0.918,-0.9193,-0.9195,-0.9193,-0.9195,-0.9207,-0.9205,-0.9203,-0.9229,-0.9229,-0.9229,0,0,-0.8786,-0.8814,-0.8829,-0.8855,-0.8896,-0.8924,-0.8928,-0.8974,-0.8993,-0.9019,-0.905,-0.907,-0.9114,-0.914,-0.9159,-0.9153,-0.9174,-0.916,-0.9143,-0.9154,-0.9152,-0.9151,-0.9149,-0.9148,-0.916,-0.916,-0.916,0,-0.876,-0.8795,-0.8833,-0.8854,-0.8874,-0.8912,-0.8928,-0.8951,-0.8998,-0.9011,-0.902,-0.9077,-0.9105,-0.9133,-0.9132,-0.9146,-0.9151,-0.9154,-0.915,-0.9149,-0.9148,-0.9146,-0.9146,-0.9158,-0.9158,-0.9159,-0.9159,0,-0.8762,-0.8786,-0.8793,-0.8838,-0.8859,-0.8876,-0.8917,-0.8934,-0.8957,-0.8984,-0.9011,-0.9046,-0.9081,-0.909,-0.9112,-0.9122,-0.9126,-0.9142,-0.9158,-0.9143,-0.9142,-0.9142,-0.9155,-0.9156,-0.9157,-0.9157,0,0,-0.8715,-0.8782,-0.8784,-0.8806,-0.8854,-0.8873,-0.8893,-0.8928,-0.8942,-0.8973,-0.8991,-0.9028,-0.9044,-0.9066,-0.9091,-0.9101,-0.9094,-0.9116,-0.9118,-0.9111,-0.9108,-0.9095,-0.9094,-0.9109,-0.9109,-0.911,-0.9105,0,-0.8703,-0.8741,-0.8777,-0.8802,-0.8825,-0.8863,-0.8881,-0.8912,-0.8939,-0.8962,-0.8992,-0.9018,-0.9037,-0.905,-0.9061,-0.9092,-0.9094,-0.9094,-0.9126,-0.9127,-0.9115,-0.9093,-0.908,-0.9073,-0.9105,-0.9105,-0.9105,0,-0.8695,-0.8726,-0.8753,-0.8801,-0.8812,-0.8827,-0.8863,-0.8885,-0.8922,-0.8941,-0.8965,-0.8993,-0.9016,-0.903,-0.9063,-0.9062,-0.9078,-0.9095,-0.9096,-0.91,-0.9114,-0.9096,-0.9072,-0.9071,-0.9105,-0.9105,-0.9105,0,-0.8657,-0.8706,-0.8729,-0.8747,-0.8803,-0.8813,-0.8836,-0.8874,-0.8893,-0.8924,-0.8938,-0.8971,-0.8989,-0.9014,-0.905,-0.9057,-0.9079,-0.9096,-0.9096,-0.9095,-0.9098,-0.9097,-0.9075,-0.9109,-0.9109,-0.9109,-0.9109,0,-0.8641,-0.8656,-0.8714,-0.8727,-0.8746,-0.8788,-0.8805,-0.8832,-0.8866,-0.8886,-0.8921,-0.8939,-0.8986,-0.901,-0.9038,-0.9061,-0.9069,-0.9085,-0.9093,-0.9082,-0.908,-0.9092,-0.9093,-0.9108,-0.9109,-0.9109,-0.9109,0,-0.8602,-0.8641,-0.8668,-0.872,-0.8733,-0.8745,-0.8789,-0.8804,-0.8834,-0.8859,-0.8868,-0.8914,-0.8944,-0.8983,-0.9025,-0.9044,-0.9064,-0.9076,-0.9052,-0.9056,-0.9053,-0.9053,-0.9038,-0.9039,-0.9071,-0.9071,-0.9071,0,-0.8588,-0.8601,-0.8654,-0.8671,-0.8694,-0.872,-0.874,-0.8782,-0.8802,-0.8846,-0.8856,-0.8889,-0.8918,-0.8964,-0.9002,-0.9035,-0.9047,-0.904,-0.9052,-0.9041,-0.9047,-0.9045,-0.9047,-0.9036,-0.9035,-0.9035,-0.9035,0,-0.8559,-0.8579,-0.8607,-0.8642,-0.8666,-0.8695,-0.8727,-0.8738,-0.8787,-0.8807,-0.8839,-0.8861,-0.8905,-0.8938,-0.8976,-0.9001,-0.9026,-0.9031,-0.9032,-0.9021,-0.9007,-0.9015,-0.9043,-0.9031,-0.9031,-0.9031,-0.9031,-0.9032,-0.8533,-0.8546,-0.8587,-0.8617,-0.8646,-0.8674,-0.8692,-0.8724,-0.8752,-0.8791,-0.8814,-0.8846,-0.8884,-0.8938,-0.8962,-0.8987,-0.8996,-0.8998,-0.8999,-0.8999,-0.8996,-0.9004,-0.8994,-0.8994,-0.8994,-0.8994,-0.8995,0,-0.8506,-0.8534,-0.8562,-0.8606,-0.863,-0.8653,-0.8689,-0.8708,-0.8735,-0.8769,-0.8797,-0.8834,-0.8866,-0.8907,-0.8942,-0.8955,-0.8967,-0.8962,-0.8962,-0.8967,-0.8985,-0.898,-0.8952,-0.8952,-0.8952,-0.8952,-0.8952,-0.8952,-0.8495,-0.852,-0.8544,-0.8584,-0.8612,-0.8643,-0.8662,-0.8689,-0.8717,-0.8757,-0.8784,-0.8811,-0.8848,-0.8886,-0.8917,-0.8929,-0.894,-0.8932,-0.8946,-0.8962,-0.8966,-0.8969,-0.8965,-0.8934,-0.8934,-0.8926,-0.8926,-0.8926]}]]